Weather History for Lacon, IL

Change the Weather History Date:

Friday, March 21, 2014

  Actual Average (KPIA) Record (KPIA)
Temperature  
Mean Temperature 46 °F 43 °F  
Max Temperature 59 °F 53 °F 87 °F (1907)
Min Temperature 35 °F 33 °F 9 °F (1960)
Degree Days  
Heating Degree Days 18 22  
Month to date heating degree days 554  
Since 1 July heating degree days 5070  
Cooling Degree Days 0 0  
Month to date cooling degree days 0  
Year to date cooling degree days 0  
Moisture  
Dew Point 35 °F    
Average Humidity 66    
Maximum Humidity 83    
Minimum Humidity 43    
Precipitation  
Precipitation 0.00 in 0.09 in 0.97 in (1913)
Month to date precipitation 1.81  
Year to date precipitation 5.38  
Snow  
Snow 0.00 in 0.00 in 5.00 in (2006)
Month to date snowfall 2.1  
Since 1 July snowfall 23.4  
Snow Depth -    
Sea Level Pressure  
Sea Level Pressure 29.86 in    
Wind  
Wind Speed 10 mph (SE)    
Max Wind Speed 20 mph    
Max Gust Speed 32 mph    
Visibility 10 miles    
Events      
T = Trace of Precipitation, MM = Missing Value Source: NWS Daily Summary

Daily Weather History Graph

Daily Weather History Graph

Search for Another Location

Airport:

Trip Planner

Search our weather history database for the weather conditions in past years. The results will help you decide how hot, cold, wet, or windy it might be!

Date:

Astronomy

Mar. 21, 2014 Rise Set
Actual Time 6:59 AM CDT 7:10 PM CDT
Civil Twilight 6:31 AM CDT 7:38 PM CDT
Nautical Twilight 5:59 AM CDT 8:10 PM CDT
Astronomical Twilight 5:26 AM CDT 8:43 PM CDT
Moon No Moon Rise 9:48 AM CDT (3/21)
Length of Visible Light 13h 06m
Length of Day
12h 11m
Waning Gibbous, 75% of the Moon is Illuminated
Mar 21
Waning Gibbous
Mar 23
Last Quarter
Mar 30
New
Apr 7
First Quarter
Apr 15
Full

Hourly Weather History & Observations

Time (CDT) Temp. Windchill Dew Point Humidity Pressure Visibility Wind Dir Wind Speed Gust Speed Precip Events Conditions
12:15 AM 39.6 °F 32.5 °F 32.0 °F 74% 29.98 in 10.0 mi East 11.5 mph - N/A   Overcast
12:35 AM 39.6 °F 34.0 °F 32.0 °F 74% 29.98 in 10.0 mi ESE 8.1 mph - N/A   Overcast
12:55 AM 39.4 °F 33.2 °F 32.0 °F 75% 29.98 in 10.0 mi East 9.2 mph - N/A   Overcast
1:15 AM 39.2 °F 35.0 °F 32.0 °F 75% 29.98 in 10.0 mi East 5.8 mph - N/A   Overcast
1:35 AM 38.1 °F 32.3 °F 32.2 °F 79% 29.98 in 10.0 mi East 8.1 mph - N/A   Overcast
1:55 AM 38.3 °F 31.9 °F 32.0 °F 78% 29.98 in 10.0 mi East 9.2 mph - N/A   Overcast
2:15 AM 37.9 °F 30.0 °F 32.0 °F 79% 29.97 in 10.0 mi East 12.7 mph - N/A   Overcast
2:35 AM 36.7 °F 29.4 °F 31.8 °F 83% 29.96 in 10.0 mi ENE 10.4 mph - N/A   Scattered Clouds
2:55 AM 36.7 °F 28.4 °F 30.9 °F 80% 29.95 in 10.0 mi East 12.7 mph - N/A   Scattered Clouds
3:15 AM 36.5 °F 28.2 °F 30.2 °F 78% 29.95 in 10.0 mi East 12.7 mph - N/A   Mostly Cloudy
3:35 AM 36.1 °F 28.7 °F 30.0 °F 78% 29.94 in 10.0 mi East 10.4 mph - N/A   Scattered Clouds
3:55 AM 35.8 °F 27.8 °F 29.8 °F 79% 29.93 in 10.0 mi East 11.5 mph 16.1 mph N/A   Clear
4:15 AM 36.7 °F 28.9 °F 29.5 °F 75% 29.93 in 10.0 mi ESE 11.5 mph 17.3 mph N/A   Clear
4:35 AM 37.0 °F 29.8 °F 29.3 °F 74% 29.91 in 10.0 mi ESE 10.4 mph 21.9 mph N/A   Clear
4:55 AM 36.9 °F 29.1 °F 29.3 °F 74% 29.91 in 10.0 mi East 11.5 mph 18.4 mph N/A   Clear
5:15 AM 36.7 °F 28.0 °F 29.5 °F 75% 29.91 in 10.0 mi ESE 13.8 mph 20.7 mph N/A   Clear
5:35 AM 36.5 °F 28.2 °F 29.5 °F 76% 29.90 in 10.0 mi ESE 12.7 mph 19.6 mph N/A   Clear
5:55 AM 37.0 °F 29.3 °F 29.7 °F 75% 29.90 in 10.0 mi ESE 11.5 mph 18.4 mph N/A   Clear
6:15 AM 37.8 °F 29.8 °F 29.7 °F 73% 29.90 in 10.0 mi ESE 12.7 mph 17.3 mph N/A   Clear
6:35 AM 37.4 °F 28.9 °F 30.2 °F 75% 29.89 in 10.0 mi ESE 13.8 mph 20.7 mph N/A   Clear
6:55 AM 36.9 °F 28.7 °F 30.2 °F 77% 29.90 in 10.0 mi ESE 12.7 mph 17.3 mph N/A   Clear
7:15 AM 36.5 °F 28.2 °F 30.2 °F 78% 29.90 in 10.0 mi ESE 12.7 mph 17.3 mph N/A   Clear
7:35 AM 36.7 °F 28.9 °F 30.2 °F 77% 29.91 in 10.0 mi East 11.5 mph - N/A   Clear
7:55 AM 37.0 °F 28.9 °F 30.2 °F 76% 29.91 in 10.0 mi ESE 12.7 mph 17.3 mph N/A   Clear
8:15 AM 37.6 °F 29.6 °F 30.9 °F 77% 29.90 in 10.0 mi ESE 12.7 mph 18.4 mph N/A   Clear
8:35 AM 38.3 °F 31.4 °F 31.6 °F 77% 29.90 in 10.0 mi ESE 10.4 mph 17.3 mph N/A   Clear
8:55 AM 39.2 °F 32.5 °F 32.0 °F 75% 29.89 in 10.0 mi ESE 10.4 mph - N/A   Clear
9:15 AM 40.6 °F 35.4 °F 32.9 °F 74% 29.90 in 10.0 mi SE 8.1 mph - N/A   Clear
9:35 AM 42.6 °F 37.8 °F 33.8 °F 71% 29.90 in 10.0 mi SE 8.1 mph - N/A   Clear
9:55 AM 44.1 °F 40.8 °F 34.5 °F 69% 29.88 in 10.0 mi SE 5.8 mph - N/A   Clear
10:15 AM 45.3 °F 41.6 °F 35.4 °F 68% 29.88 in 10.0 mi SE 6.9 mph - N/A   Clear
10:35 AM 46.4 °F 42.9 °F 36.1 °F 67% 29.87 in 10.0 mi SE 6.9 mph - N/A   Clear
10:55 AM 48.4 °F - 37.2 °F 65% 29.85 in 10.0 mi ESE 9.2 mph - N/A   Clear
11:15 AM 49.3 °F - 37.8 °F 65% 29.84 in 10.0 mi SE 8.1 mph - N/A   Clear
11:35 AM 50.5 °F - 39.0 °F 65% 29.84 in 10.0 mi SSE 8.1 mph - N/A   Clear
11:55 AM 51.8 °F - 39.4 °F 63% 29.83 in 10.0 mi SE 10.4 mph - N/A   Clear
12:15 PM 54.1 °F - 39.9 °F 59% 29.83 in 10.0 mi SSE 9.2 mph - N/A   Clear
12:35 PM 55.9 °F - 40.3 °F 56% 29.83 in 10.0 mi South 8.1 mph - N/A   Clear
12:55 PM 57.4 °F - 39.6 °F 51% 29.82 in 10.0 mi South 8.1 mph - N/A   Clear
1:15 PM 55.4 °F - 38.3 °F 53% 29.80 in 10.0 mi SW 6.9 mph - N/A   Clear
1:35 PM 57.0 °F - 38.8 °F 51% 29.80 in 10.0 mi SW 9.2 mph - N/A   Clear
1:55 PM 56.7 °F - 37.2 °F 48% 29.78 in 10.0 mi SW 5.8 mph - N/A   Clear
2:15 PM 57.2 °F - 37.6 °F 48% 29.77 in 10.0 mi SSW 5.8 mph - N/A   Clear
2:35 PM 55.9 °F - 36.1 °F 47% 29.76 in 10.0 mi WSW 4.6 mph - N/A   Clear
2:55 PM 55.9 °F - 37.0 °F 49% 29.75 in 10.0 mi SSW 4.6 mph - N/A   Clear
3:15 PM 55.9 °F - 37.4 °F 50% 29.74 in 10.0 mi SSW 3.5 mph - N/A   Clear
3:35 PM 56.3 °F - 37.0 °F 48% 29.73 in 10.0 mi Calm Calm - N/A   Clear
3:55 PM 57.2 °F - 38.1 °F 49% 29.72 in 10.0 mi SSW 4.6 mph - N/A   Clear
4:15 PM 58.3 °F - 37.8 °F 46% 29.71 in 10.0 mi SSW 6.9 mph - N/A   Clear
4:35 PM 58.1 °F - 36.5 °F 44% 29.72 in 10.0 mi SW 6.9 mph - N/A   Clear
4:55 PM 58.1 °F - 37.2 °F 46% 29.71 in 10.0 mi SW 5.8 mph - N/A   Clear
5:15 PM 58.1 °F - 36.1 °F 44% 29.72 in 10.0 mi SW 5.8 mph - N/A   Scattered Clouds
5:35 PM 57.9 °F - 37.0 °F 46% 29.71 in 10.0 mi West 8.1 mph - N/A   Scattered Clouds
5:55 PM 58.8 °F - 36.5 °F 43% 29.74 in 10.0 mi West 5.8 mph - N/A   Scattered Clouds
6:15 PM 56.8 °F - 40.1 °F 54% 29.75 in 10.0 mi West 8.1 mph 16.1 mph N/A   Overcast
6:35 PM 55.4 °F - 38.8 °F 54% 29.75 in 10.0 mi West 10.4 mph - N/A   Overcast
6:55 PM 54.3 °F - 38.7 °F 55% 29.77 in 10.0 mi West 10.4 mph - N/A   Mostly Cloudy
7:15 PM 52.9 °F - 38.8 °F 59% 29.78 in 10.0 mi NW 8.1 mph - N/A   Overcast
7:35 PM 51.6 °F - 38.8 °F 62% 29.80 in 10.0 mi NW 10.4 mph 17.3 mph N/A   Overcast
7:55 PM 49.6 °F - 37.6 °F 63% 29.81 in 10.0 mi NNW 8.1 mph - N/A   Overcast
8:15 PM 49.1 °F - 36.9 °F 63% 29.82 in 10.0 mi NNW 10.4 mph - N/A   Overcast
8:35 PM 48.2 °F - 37.6 °F 67% 29.82 in 10.0 mi NW 6.9 mph - N/A   Overcast
8:55 PM 46.9 °F - 37.2 °F 69% 29.83 in 10.0 mi NW 8.1 mph - N/A   Mostly Cloudy
9:15 PM 45.5 °F 40.8 °F 36.5 °F 71% 29.83 in 10.0 mi NW 9.2 mph - N/A   Clear
9:35 PM 44.1 °F 40.8 °F 36.1 °F 74% 29.85 in 10.0 mi WNW 5.8 mph - N/A   Clear
9:55 PM 44.6 °F 36.6 °F 36.5 °F 73% 29.86 in 10.0 mi NW 19.6 mph 26.5 mph N/A   Clear
10:15 PM 43.5 °F 35.5 °F 36.5 °F 76% 29.88 in 10.0 mi NW 18.4 mph 25.3 mph N/A   Clear
10:35 PM 41.5 °F 33.2 °F 36.1 °F 81% 29.90 in 10.0 mi NW 17.3 mph 23.0 mph N/A   Scattered Clouds
10:55 PM 39.6 °F 31.3 °F 33.4 °F 79% 29.92 in 10.0 mi NW 15.0 mph 27.6 mph N/A   Scattered Clouds
11:15 PM 39.2 °F 29.6 °F 33.3 °F 79% 29.94 in 10.0 mi NW 19.6 mph 26.5 mph N/A   Mostly Cloudy
11:35 PM 38.3 °F 28.7 °F 31.3 °F 76% 29.95 in 10.0 mi NW 18.4 mph 32.2 mph N/A   Scattered Clouds
11:55 PM 37.8 °F 30.2 °F 31.5 °F 78% 29.96 in 10.0 mi NW 11.5 mph 20.7 mph N/A   Scattered Clouds